FENGYUN 1C DEB, 30201

Orbit data source: Space-Track

FENGYUN 1C DEB, 30201 is space debris in SSO originally from a launch on Mon, 10 May 1999 UTC launched from the Taiyaun Space Center, China (TSC). Fengyun 1C debris stems from the Chinese weather satellite Fengyun-1C, which was intentionally destroyed by a Chinese anti-satellite missile in 2007. This event dramatically increased the amount of space debris, with thousands of trackable fragments posing hazards to satellites and human spaceflight. The Fengyun 1C debris cloud has become a focal point in discussions about space sustainability and the need for international regulations to prevent the creation of new debris.

Loading next visibility...
Identifier
30201, 1999-025VJ
Orbit
SSO
Country
Flag of CNCN / PRC
Related business
Manufacturer
Unknown
Mission
Spacecraft
Bus & Motor
Unknown
Mass
Unknown
Launch date (UTC)
1999-05-10 (27 years ago)
Launch vehicle
Unknown
Launch site
Taiyaun Space Center, China (TSC)
Object type
Payload
Rocket body
Debris
Shape & HBR
Unknown shape, 0.1 m
Radar Cross Section
Small (<0.1 m²)

Expand to show TLE details & history
Last TLE update: 20 hours ago

TLE from 20 hours ago
0 FENGYUN 1C DEB
1 30201U 99025VJ  26036.85981730  .00001355  00000-0  61974-3 0  9993
2 30201  99.4041 179.7860 0029923 155.5336 204.7268 14.23093924986117
Epoch: 2026-02-05T20:38Z
TLE epoch observation values (Epoch: 2026-02-05T20:38:08.214Z)
Latitude
0.00002°
Longitude
94.24578°
Altitude
837.369 km
Speed
7.424 km/s
True Right ascension
11h 59m 08s
True Declination
0° 00' 00"
Sunlit
Object was in full shadow at epoch
Visualization orbit readout
Latitude
Unknown
Longitude
Unknown
Altitude
Unknown
Speed
Unknown
Apparent Right ascension
Unknown
Apparent Declination
Unknown
Sunlit
N/A
Visualization observer readout
Local Sidereal Time
18:53:07
Azimuth
Unknown
Elevation
Unknown
Doppler factor
Unknown
Orbital elements
Apogee altitude
833.613 km
Perigee altitude
790.582 km
Semi-major axis
7,190.234 km
Eccentricity
0.00299
Inclination
99.4041°
RAAN
179.786°
Arg. of periapsis
155.5336°
True anomaly
204.58386°
Mean anomaly
204.7268°
Eccentric anomaly
204.65528°
Mean motion
3.55982 °/min
Orbital period
101.13 mins
BSTAR
0.00061974
Loading maneuver chart data...
Computing Atmospheric mass density...

Documentation

Showing up to 5 results
|